Zurück zum Katalog

ONEWEB-0207

AktivKommunikationPO
NORAD 48242·PAYLOAD·🇬🇧 United Kingdom

Gestartet Apr 25, 2021 von Vostochny Cosmodrome

Loading…

Nächste Überflüge (nächste 24 Stunden)

TLE

AktuellSource: CelesTrak SupGP

Epoche: Sep 15, 2026, 03:57 UTC

1 48242C 21031AJ  26258.16508516 -.00004630  00000+0 -12505-1 0  2588
2 48242  87.8900 271.7585 0002029 102.4502 337.3448 13.14505989    14

Verfolge ONEWEB-0207 in Echtzeit mit AllMySat

Download on the App Store